Location: Engelmannsreuth
(49.8125°N, 11.6497°E)
Time: 18:06:58
(UTC+00:00)

Cosmos 1862 - Pass Details

Date: 17 February 2020
Orbit: 538 x 556 km, 82.5° (Epoch: 31 March)

Event Time Altitude Azimuth Distance (km) Brightness Sun altitude
Rises 04:50:42 0° 353° (N) 2,710 6.8 -15.2°
Reaches altitude 10° 04:52:54 10° 357° (N) 1,812 5.9 -14.8°
Maximum altitude 04:56:50 59° 77° (ENE) 631 3.9 -14.2°
Drops below altitude 10° 05:00:44 10° 158° (SSE) 1,796 6.3 -13.6°
Sets 05:02:54 0° 162° (SSE) 2,684 7.1 -13.2°
